Change the Weather History Date:

Monday, July 22, 2013

  Actual Average Record
Temperature  
Mean Temperature 79 °F -  
Max Temperature 87 °F 86 °F 100 °F (1993)
Min Temperature 71 °F 68 °F 64 °F (2001)
Cooling Degree Days 14    
Growing Degree Days 29 (Base 50)    
Moisture  
Dew Point 70 °F    
Average Humidity 81    
Maximum Humidity 94    
Minimum Humidity 55    
Precipitation  
Precipitation 0.51 in - - ()
Sea Level Pressure  
Sea Level Pressure 29.96 in    
Wind  
Wind Speed 6 mph (WSW)    
Max Wind Speed 15 mph    
Max Gust Speed 22 mph    
Visibility 10 miles    
Events Rain    
Averages and records for this station are not official NWS values.
T = Trace of Precipitation, MM = Missing Value Source: NWS Daily Summary

Daily Weather History Graph

Daily Weather History Graph

Search for Another Location

Airport or City:

Trip Planner

Search our weather history database for the weather conditions in past years. The results will help you decide how hot, cold, wet, or windy it might be!

Date:

Astronomy

Jul. 22, 2013 Rise Set
Actual Time 6:32 AM EDT 8:39 PM EDT
Civil Twilight 6:03 AM EDT 9:07 PM EDT
Nautical Twilight 5:28 AM EDT 9:42 PM EDT
Astronomical Twilight 4:51 AM EDT 10:19 PM EDT
Moon 8:28 PM EDT (7/22) 6:24 AM EDT (7/22)
Length of Visible Light 15h 04m
Length of Day
14h 07m
Full, 100% of the Moon is Illuminated
Jul 22
Full
Jul 22
Full
Jul 29
Last Quarter
Aug 6
New
Aug 14
First Quarter

Hourly Weather History & Observations

Time (EDT) Temp. Heat Index Dew Point Humidity Pressure Visibility Wind Dir Wind Speed Gust Speed Precip Events Conditions
12:09 AM 71.6 °F - 69.8 °F 94% 30.05 in 10.0 mi WSW 3.5 mph - 0.01 in Rain Light Rain
12:17 AM 71.6 °F - 69.8 °F 94% 30.05 in 10.0 mi West 4.6 mph - 0.01 in Rain Light Rain
12:26 AM 71.6 °F - 69.8 °F 94% 30.04 in 10.0 mi Calm Calm - 0.01 in Rain Light Rain
12:53 AM 72.0 °F - 70.0 °F 93% 29.99 in 10.0 mi WNW 3.5 mph - 0.02 in Rain Light Rain
1:44 AM 71.6 °F - 69.8 °F 94% 30.00 in 10.0 mi WNW 4.6 mph - 0.03 in   Mostly Cloudy
1:53 AM 72.0 °F - 70.0 °F 93% 29.97 in 10.0 mi WNW 4.6 mph - 0.04 in   Mostly Cloudy
2:11 AM 71.6 °F - 69.8 °F 94% 29.99 in 10.0 mi West 4.6 mph - 0.01 in   Scattered Clouds
2:42 AM 71.6 °F - 69.8 °F 94% 29.98 in 10.0 mi WSW 4.6 mph - 0.02 in   Mostly Cloudy
2:53 AM 72.0 °F - 70.0 °F 93% 29.94 in 10.0 mi WSW 6.9 mph - 0.03 in   Overcast
3:53 AM 71.1 °F - 69.1 °F 93% 29.93 in 10.0 mi WSW 5.8 mph - 0.02 in   Mostly Cloudy
4:53 AM 71.1 °F - 69.1 °F 93% 29.94 in 10.0 mi West 9.2 mph - 0.02 in   Overcast
5:53 AM 71.1 °F - 69.1 °F 93% 29.95 in 10.0 mi West 5.8 mph - 0.02 in   Overcast
6:53 AM 71.1 °F - 69.1 °F 93% 29.96 in 10.0 mi West 5.8 mph - 0.02 in   Overcast
7:17 AM 71.6 °F - 69.8 °F 94% 29.99 in 10.0 mi WSW 9.2 mph - N/A   Overcast
7:53 AM 71.1 °F - 69.1 °F 93% 29.98 in 10.0 mi WSW 8.1 mph - 0.01 in   Overcast
8:53 AM 72.0 °F - 69.1 °F 91% 29.99 in 10.0 mi West 8.1 mph - 0.02 in   Overcast
9:53 AM 73.0 °F - 69.1 °F 87% 30.00 in 10.0 mi WSW 8.1 mph - 0.01 in   Overcast
10:53 AM 77.0 °F - 70.0 °F 79% 29.99 in 10.0 mi SW 8.1 mph - 0.01 in   Scattered Clouds
11:31 AM 80.6 °F 83.9 °F 69.8 °F 70% 30.02 in 10.0 mi WSW 3.5 mph - N/A   Mostly Cloudy
12:06 PM 80.6 °F 84.6 °F 71.6 °F 74% 30.01 in 10.0 mi SSW 8.1 mph - 0.01 in   Scattered Clouds
12:53 PM 84.0 °F 88.4 °F 70.0 °F 63% 29.97 in 10.0 mi SW 10.4 mph - 0.29 in   Mostly Cloudy
1:53 PM 86.0 °F 90.1 °F 69.1 °F 57% 29.95 in 10.0 mi SW 8.1 mph - N/A   Mostly Cloudy
2:53 PM 84.9 °F 89.4 °F 70.0 °F 61% 29.92 in 10.0 mi SW 11.5 mph - N/A   Partly Cloudy
3:53 PM 86.0 °F 90.1 °F 69.1 °F 57% 29.90 in 10.0 mi SW 15.0 mph 21.9 mph N/A   Partly Cloudy
4:53 PM 87.1 °F 91.3 °F 69.1 °F 55% 29.89 in 10.0 mi SW 12.7 mph - N/A   Scattered Clouds
5:53 PM 84.9 °F 88.8 °F 69.1 °F 59% 29.87 in 10.0 mi SSW 13.8 mph - N/A   Partly Cloudy
6:53 PM 84.0 °F 87.8 °F 69.1 °F 61% 29.87 in 10.0 mi SSW 15.0 mph 20.7 mph N/A   Partly Cloudy
7:53 PM 82.0 °F 85.9 °F 70.0 °F 67% 29.88 in 10.0 mi SSW 12.7 mph 20.7 mph N/A   Clear
8:53 PM 79.0 °F - 70.0 °F 74% 29.88 in 10.0 mi SW 10.4 mph - N/A   Clear
9:53 PM 78.1 °F - 70.0 °F 76% 29.89 in 10.0 mi SW 9.2 mph - N/A   Mostly Cloudy
10:53 PM 77.0 °F - 70.0 °F 79% 29.90 in 10.0 mi SSW 12.7 mph 19.6 mph N/A   Mostly Cloudy
11:06 PM 75.2 °F - 69.8 °F 83% 29.94 in 10.0 mi SW 9.2 mph 19.6 mph N/A   Mostly Cloudy
11:17 PM 75.2 °F - 69.8 °F 83% 29.94 in 10.0 mi SSW 9.2 mph - N/A   Mostly Cloudy
11:53 PM 75.0 °F - 71.1 °F 87% 29.90 in 10.0 mi SW 9.2 mph - N/A   Partly Cloudy